Gastonia, NC

1:03 AM EST on January 18, 2020 (GMT -0500)
Gastonia Municipal

Weather History for KAKH - November, 2019

Change the Weather History Date:

Saturday, November 30, 2019

  Actual Average (KCLT) Record (KCLT)
Temperature  
Mean Temperature 54 °F -  
Max Temperature 59 °F 54 °F 76 °F (1991)
Min Temperature 50 °F 35 °F 15 °F (1929)
Degree Days  
Heating Degree Days 10    
Growing Degree Days 4 (Base 50)    
Moisture  
Dew Point 44 °F    
Average Humidity 69    
Maximum Humidity 86    
Minimum Humidity 51    
Precipitation  
Precipitation 0.44 in - - ()
Sea Level Pressure  
Sea Level Pressure 29.96 in    
Wind  
Wind Speed 2 mph ()    
Max Wind Speed 5 mph    
Max Gust Speed -    
Visibility 7.1 miles    
Events Rain , Thunderstorm    
Averages and records for this station are not official NWS values.
T = Trace of Precipitation, MM = Missing Value Source: Averaged Metar Reports

Daily Weather History Graph

Daily Weather History Graph

Search for Another Location

Airport or City:

Astronomy

Nov. 30, 2019 Rise Set
Actual Time 7:13 AM EST 5:12 PM EST
Civil Twilight 6:45 AM EST 5:40 PM EST
Nautical Twilight 6:14 AM EST 6:11 PM EST
Astronomical Twilight 5:43 AM EST 6:42 PM EST
Moon 10:56 AM EST (11/30) 9:03 PM EST (11/30)
Length of Visible Light 10h 54m
Length of Day
9h 59m
Waxing Crescent, 18% of the Moon is Illuminated
Nov 30
Waxing Crescent
Dec 4
First Quarter
Dec 12
Full
Dec 18
Last Quarter
Dec 26
New

Hourly Weather History & Observations

Time (EST) Temp. Dew Point Humidity Pressure Visibility Wind Dir Wind Speed Gust Speed Precip Events Conditions
12:54 AM 51.1 °F 37.9 °F 61% 30.06 in 10.0 mi SSW 3.5 mph - N/A   Overcast
3:54 AM 50.0 °F 37.9 °F 63% 30.04 in 10.0 mi Calm Calm - N/A   Overcast
5:54 AM 51.1 °F 37.9 °F 61% 30.02 in 10.0 mi Calm Calm - N/A   Overcast
6:54 AM 52.0 °F 37.9 °F 59% 30.02 in 10.0 mi Calm Calm - N/A   Overcast
7:54 AM 52.0 °F 37.9 °F 59% 30.02 in 10.0 mi Calm Calm - N/A   Overcast
8:54 AM 53.1 °F 39.0 °F 59% 30.03 in 10.0 mi Variable 3.5 mph - N/A   Overcast
10:54 AM 55.9 °F 39.9 °F 55% 30.04 in 10.0 mi NE 3.5 mph - N/A   Overcast
12:54 PM 57.9 °F 41.0 °F 53% 29.96 in 10.0 mi Calm Calm - N/A   Overcast
1:54 PM 59.0 °F 41.0 °F 51% 29.94 in 10.0 mi SW 3.5 mph - N/A   Overcast
2:54 PM 59.0 °F 43.0 °F 55% 29.93 in 10.0 mi SSE 3.5 mph - N/A   Overcast
3:25 PM 59.0 °F 43.0 °F 55% 29.91 in 10.0 mi East 4.6 mph - N/A   Overcast
3:54 PM 59.0 °F 43.0 °F 55% 29.91 in 10.0 mi ESE 4.6 mph - N/A   Mostly Cloudy
4:54 PM 59.0 °F 44.1 °F 58% 29.91 in 10.0 mi Calm Calm - N/A   Overcast
5:54 PM 55.9 °F 46.0 °F 69% 29.96 in 2.5 mi ENE 3.5 mph - 0.07 in Rain Heavy Rain
7:54 PM 53.1 °F 48.9 °F 86% 29.91 in 4.0 mi NNW 3.5 mph - 0.05 in Rain Light Rain
8:44 PM 53.1 °F 48.9 °F 86% 29.92 in 5.0 mi North 3.5 mph - 0.01 in Rain Light Rain
8:54 PM 53.1 °F 48.9 °F 86% 29.91 in 6.0 mi NNE 3.5 mph - 0.01 in   Overcast
9:54 PM 53.1 °F 48.9 °F 86% 29.92 in 2.5 mi North 4.6 mph - 0.06 in Rain Rain
10:03 PM 53.1 °F 48.9 °F 86% 29.91 in 3.0 mi Calm Calm - 0.00 in Rain , Thunderstorm Light Rain
10:54 PM 53.1 °F 48.9 °F 86% 29.96 in 2.5 mi North 4.6 mph - 0.08 in Rain Rain
11:03 PM 53.1 °F 48.9 °F 86% 29.93 in 1.8 mi Variable 3.5 mph - 0.05 in Rain Rain
11:35 PM 53.1 °F 48.9 °F 86% 29.93 in 2.0 mi NE 3.5 mph - 0.16 in Rain , Thunderstorm Heavy Rain
11:50 PM 53.1 °F 48.9 °F 86% 29.92 in 3.0 mi NE 3.5 mph - 0.17 in Rain Light Rain